Cosmos 1733 - Orbit

View from above orbital plane
View from above orbital plane
View from above satellite
View from above satellite

Ground track
Ground track

The orbit data is extracted from the following two-line orbital elements,

1 16611U 86018A   13143.82788247  .00003102  00000-0  19779-3 0  6894
2 16611 082.5044 061.2298 0015535 078.4092 281.8879 15.08280943484376
Epoch (UTC): 23 May 2013 19:52:09
Eccentricity: 0.0015535
inclination: 82.5044°
perigee height: 531 km
apogee height: 552 km
right ascension of ascending node: 61.2298°
argument of perigee: 78.4092°
revolutions per day: 15.08280943
mean anomaly at epoch: 281.8879°
orbit number at epoch: 48437

The dashed part of the orbit path shows where the satellite is in the earth's shadow,  

Developed and maintained by Chris Peat, Heavens-Above GmbH. Please read the updated FAQ before sending e-mail. Imprint. DLR